Location: Bothwell
(41.7170°N, 112.2589°W)
Time: 00:25:12
(UTC+00:00)

STARLINK-37351 - Pass Details

Date: 19 April 2026
Orbit: 261 x 263 km, 97.3° (Epoch: 18 April)

Event Time Altitude Azimuth Distance (km) Brightness Sun altitude
Rises 04:04:51 0° 12° (NNE) 1,893 5.7 -19.5°
Reaches altitude 10° 04:06:40 10° 13° (NNE) 1,079 4.4 -19.8°
Enters shadow 04:06:45 11° 13° (NNE) 1,043 4.3 -19.8°
